HB9FHL-13 Weather Reports


Display with metric or nautical units.
time (UTC)temp
F
wind
direction
speed
MPH
gust
MPH
rain 1hr
in
rain 24hr
in
rain mn
in
humidity
%
barometer
mb
20260506011800 55 217 4.0 9.0 0.00 0.00 0.00 1009.1
20260506011300 54 238 5.0 15.0 0.00 0.00 0.00 1009.9
20260506010759 54 226 6.0 13.0 0.00 0.00 0.00 1005.4
20260506010259 56 240 8.0 14.0 0.00 0.00 0.00 1010.6
20260506005756 56 225 6.0 11.0 0.00 0.00 0.00 1004.9
20260506005256 55 232 6.0 10.0 0.00 0.00 0.00 1005.9
20260506004756 53 228 6.0 12.0 0.00 0.00 0.00 1006.5
20260506004255 54 222 5.0 9.0 0.00 0.00 0.00 1007.5
20260506003755 55 233 5.0 8.0 0.00 0.00 0.00 1009.7
20260506003254 56 229 6.0 10.0 0.00 0.00 0.00 1012.4
20260506002754 55 232 4.0 6.0 0.00 0.00 0.00 1008.7
20260506002253 56 229 5.0 9.0 0.00 0.00 0.00 1004.7
20260506001753 55 243 6.0 10.0 0.00 0.00 0.00 1007.2
20260506001254 56 233 7.0 11.0 0.00 0.00 0.00 1010.0
20260506000752 54 252 2.0 10.0 0.00 0.00 0.00 1009.3
20260506000251 54 0 0.0 0.0 0.00 0.00 0.00 1009.8
20260505235751 56 228 1.0 5.0 0.00 0.00 0.00 1006.5
20260505235250 55 232 5.0 11.0 0.00 0.00 0.00 1009.7
20260505234750 55 253 3.0 6.0 0.00 0.00 0.00 1010.5
20260505234249 55 243 3.0 5.0 0.00 0.00 0.00 1008.6
20260505233749 56 225 3.0 6.0 0.00 0.00 0.00 1007.0
20260505233248 55 240 5.0 9.0 0.00 0.00 0.00 1010.7
20260505232748 57 243 4.0 7.0 0.00 0.00 0.00 1013.0
20260505232247 55 217 5.0 9.0 0.00 0.00 0.00 1004.2
20260505231748 56 243 6.0 10.0 0.00 0.00 0.00 1007.2
20260505231246 55 240 6.0 10.0 0.00 0.00 0.00 1009.6
20260505230746 56 243 6.0 9.0 0.00 0.00 0.00 1008.1
20260505230245 55 208 6.0 11.0 0.00 0.00 0.00 1008.3
20260505225745 55 228 6.0 10.0 0.00 0.00 0.00 1007.1
20260505225244 56 225 5.0 9.0 0.00 0.00 0.00 1007.0
20260505224744 57 232 7.0 11.0 0.00 0.00 0.00 1007.0
20260505224243 56 225 4.0 10.0 0.00 0.00 0.00 1011.3
20260505223742 56 252 4.0 9.0 0.00 0.00 0.00 1011.7
20260505223242 56 238 5.0 7.0 0.00 0.00 0.00 1013.2
20260505222741 56 217 6.0 11.0 0.00 0.00 0.00 1011.7
20260505222243 55 221 5.0 10.0 0.00 0.00 0.00 1003.0
20260505221740 55 212 5.0 9.0 0.00 0.00 0.00 1013.9
20260505221240 55 240 3.0 9.0 0.00 0.00 0.00 1008.7
20260505220739 55 238 3.0 7.0 0.00 0.00 0.00 1010.6
20260505220236 54 221 4.0 6.0 0.00 0.00 0.00 1010.0
20260505215736 55 246 3.0 6.0 0.00 0.00 0.00 1006.4
20260505215235 55 238 4.0 7.0 0.00 0.00 0.00 1009.6
20260505214735 56 243 4.0 8.0 0.00 0.00 0.00 1009.6
20260505214234 54 231 4.0 9.0 0.00 0.00 0.00 1007.1
20260505213738 55 236 4.0 8.0 0.00 0.00 0.00 1009.8
20260505213233 57 231 4.0 8.0 0.00 0.00 0.00 1008.3
20260505212733 55 245 5.0 9.0 0.00 0.00 0.00 1005.9
20260505212232 55 233 5.0 10.0 0.00 0.00 0.00 1009.1
20260505211732 54 221 5.0 9.0 0.00 0.00 0.00 1011.8
20260505211230 55 214 7.0 13.0 0.00 0.00 0.00 1010.5
20260505210729 57 231 6.0 13.0 0.00 0.00 0.00 1006.2
20260505210225 57 232 8.0 14.0 0.00 0.00 0.00 1009.8
20260505205725 56 231 7.0 14.0 0.00 0.00 0.00 1002.9
20260505205224 56 232 6.0 11.0 0.00 0.00 0.00 1007.4
20260505204219 55 252 6.0 10.0 0.00 0.00 0.00 1006.6
20260505203719 55 222 6.0 11.0 0.00 0.00 0.00 1007.8
20260505203218 55 242 7.0 10.0 0.00 0.00 0.00 1010.6
20260505202217 55 235 7.0 12.0 0.00 0.00 0.00 1011.7
20260505201716 54 215 6.0 10.0 0.00 0.00 0.00 1007.7
20260505201216 54 231 6.0 9.0 0.00 0.00 0.00 1004.2
20260505200716 55 229 5.0 9.0 0.00 0.00 0.00 1008.0
20260505200215 55 222 5.0 10.0 0.00 0.00 0.00 1012.6
20260505200157 55 243 7.0 12.0 0.00 0.00 0.00 1009.5
20260505195715 55 243 7.0 12.0 0.00 0.00 0.00 1009.5
20260505195619 54 222 7.0 12.0 0.00 0.00 0.00 1008.4
20260505195214 54 222 7.0 12.0 0.00 0.00 0.00 1008.4
20260505194714 54 212 6.0 11.0 0.00 0.00 0.00 1001.5
20260505194213 53 215 5.0 8.0 0.00 0.00 0.00 1008.1
20260505193713 54 214 5.0 11.0 0.00 0.00 0.00 1007.4
20260505193212 55 240 6.0 13.0 0.00 0.00 0.00 1007.2
20260505192712 55 242 7.0 17.0 0.00 0.00 0.00 1012.2
20260505192211 56 200 7.0 11.0 0.00 0.00 0.00 1011.3
20260505191711 55 233 6.0 10.0 0.00 0.00 0.00 1010.6
20260505191210 55 225 6.0 11.0 0.00 0.00 0.00 1004.5
20260505190710 56 229 6.0 13.0 0.00 0.00 0.00 1009.5
20260505190209 53 226 6.0 13.0 0.00 0.00 0.00 1014.2
20260505185709 52 226 6.0 11.0 0.00 0.00 0.00 1004.8
20260505185208 53 215 5.0 11.0 0.00 0.00 0.00 1004.6
20260505184708 54 226 7.0 12.0 0.00 0.00 0.00 1002.7
20260505184207 54 232 8.0 15.0 0.00 0.00 0.00 1004.9
20260505183707 53 233 7.0 12.0 0.00 0.00 0.00 1006.0
20260505183206 56 222 9.0 14.0 0.00 0.00 0.00 1005.1
20260505182704 55 236 11.0 17.0 0.00 0.00 0.00 1020.1
20260505182205 53 233 10.0 19.0 0.00 0.00 0.00 1006.9
20260505181703 53 231 12.0 18.0 0.00 0.00 0.00 1015.8
20260505181203 53 240 13.0 21.0 0.00 0.00 0.00 1018.1
20260505180702 55 242 13.0 21.0 0.00 0.00 0.00 1008.9
20260505180202 54 233 12.0 19.0 0.00 0.00 0.00 1006.6
20260505175701 52 240 13.0 23.0 0.00 0.00 0.00 1012.5
20260505175201 53 242 14.0 22.0 0.00 0.00 0.00 1006.1
20260505174700 53 231 12.0 20.0 0.00 0.00 0.00 1010.9
20260505174159 52 238 11.0 21.0 0.00 0.00 0.00 1001.6
20260505173659 55 203 11.0 18.0 0.00 0.00 0.00 1011.0
20260505173158 55 226 11.0 17.0 0.00 0.00 0.00 1006.1
20260505172658 54 211 12.0 20.0 0.00 0.00 0.00 1007.6
20260505172157 53 221 13.0 20.0 0.00 0.00 0.00 1006.4
20260505171657 54 233 14.0 28.0 0.00 0.00 0.00 1007.8
20260505171156 55 229 12.0 20.0 0.00 0.00 0.00 1008.5
20260505170655 56 242 12.0 20.0 0.00 0.00 0.00 1018.1
20260505170153 54 235 13.0 23.0 0.00 0.00 0.00 1007.5
20260505165653 55 232 13.0 23.0 0.00 0.00 0.00 1001.5
20260505165152 56 229 9.0 15.0 0.00 0.00 0.00 1010.5
20260505164652 56 238 11.0 25.0 0.00 0.00 0.00 1013.3
20260505164151 56 229 14.0 23.0 0.00 0.00 0.00 1009.8
20260505163650 58 243 11.0 18.0 0.00 0.00 0.00 1005.1
20260505163150 56 245 9.0 14.0 0.00 0.00 0.00 1003.5
20260505162649 55 224 8.0 13.0 0.00 0.00 0.00 1010.7
20260505162149 57 246 8.0 13.0 0.00 0.00 0.00 1011.1
20260505161648 55 232 9.0 14.0 0.00 0.00 0.00 1001.9
20260505161148 56 233 8.0 13.0 0.00 0.00 0.00 1002.6
20260505160647 57 240 7.0 11.0 0.00 0.00 0.00 1003.5
20260505160147 58 245 7.0 12.0 0.00 0.00 0.00 1007.0
20260505153143 58 263 6.0 11.0 0.00 0.00 0.00 1000.7
20260505152643 58 245 7.0 10.0 0.00 0.00 0.00 1007.7
20260505152142 61 246 7.0 11.0 0.00 0.00 0.00 1008.0
20260505151644 59 262 7.0 12.0 0.00 0.00 0.00 1005.8
20260505151141 59 242 7.0 11.0 0.00 0.00 0.00 1008.9
20260505150640 59 228 5.0 10.0 0.00 0.00 0.00 1002.2
20260505150138 60 346 3.0 7.0 0.00 0.00 0.00 999.8
20260505140629 59 35 3.0 6.0 0.00 0.00 0.00 1005.6
20260505140129 60 39 1.0 3.0 0.00 0.00 0.00 1005.0
20260505130123 59 46 5.0 9.0 0.00 0.00 0.00 1006.7
20260505124621 59 27 2.0 4.0 0.00 0.00 0.00 1007.9
20260505124119 58 311 1.0 2.0 0.00 0.00 0.00 1007.2
20260505123619 57 339 1.0 2.0 0.00 0.00 0.00 1009.9
20260505122617 57 3 5.0 8.0 0.00 0.00 0.00 1009.3
20260505122117 56 6 3.0 5.0 0.00 0.00 0.00 1008.7
20260505121615 57 359 3.0 6.0 0.00 0.00 0.00 1009.5
20260505121115 58 10 4.0 7.0 0.00 0.00 0.00 1008.6
20260505120651 58 246 2.0 5.0 0.00 0.00 0.00 1011.6
20260505120614 58 246 2.0 5.0 0.00 0.00 0.00 1011.6
20260505120112 56 232 2.0 5.0 0.00 0.00 0.00 1009.9
20260505115612 56 274 1.0 4.0 0.00 0.00 0.00 1009.5
20260505115111 56 277 2.0 4.0 0.00 0.00 0.00 1008.4
20260505114612 55 333 1.0 4.0 0.00 0.00 0.00 1007.6
20260505114110 55 315 3.0 5.0 0.00 0.00 0.00 1008.6
20260505113610 55 350 4.0 6.0 0.00 0.00 0.00 1006.7
20260505113109 54 359 4.0 9.0 0.00 0.00 0.00 1006.6
20260505112609 55 10 3.0 7.0 0.00 0.00 0.00 1007.8
20260505112106 55 329 3.0 6.0 0.00 0.00 0.00 1010.0
20260505111609 55 13 3.0 6.0 0.00 0.00 0.00 1010.0
20260505111219 55 41 2.0 5.0 0.00 0.00 0.00 1011.5
20260505111104 55 41 2.0 5.0 0.00 0.00 0.00 1011.5
20260505110603 54 335 2.0 4.0 0.00 0.00 0.00 1008.0
20260505110218 54 343 1.0 3.0 0.00 0.00 0.00 1005.8
20260505102059 53 56 3.0 5.0 0.00 0.00 0.00 1006.5
20260505101558 54 62 3.0 6.0 0.00 0.00 0.00 1006.2
20260505101058 54 10 4.0 6.0 0.00 0.00 0.00 1006.2
20260505100557 54 13 3.0 5.0 0.00 0.00 0.00 1004.7
20260505100057 54 13 2.0 4.0 0.00 0.00 0.00 1010.1
20260505095556 53 63 3.0 4.0 0.00 0.00 0.00 1009.7
20260505095056 54 42 3.0 4.0 0.00 0.00 0.00 1006.1
20260505094555 53 80 3.0 5.0 0.00 0.00 0.00 1007.9
20260505094055 54 75 1.0 3.0 0.00 0.00 0.00 1007.8
20260505093554 53 49 2.0 3.0 0.00 0.00 0.00 1007.5
20260505093054 53 60 2.0 3.0 0.00 0.00 0.00 1007.7
20260505092553 54 84 2.0 3.0 0.00 0.00 0.00 1009.9
20260505092052 53 63 2.0 3.0 0.00 0.00 0.00 1010.4
20260505091552 53 346 1.0 3.0 0.00 0.00 0.00 1011.8
20260505091051 53 49 1.0 2.0 0.00 0.00 0.00 1006.5
20260505090551 52 80 2.0 3.0 0.00 0.00 0.00 1009.6
20260505090050 53 73 2.0 3.0 0.00 0.00 0.00 1011.9
20260505085550 54 58 2.0 3.0 0.00 0.00 0.00 1009.1
20260505085049 54 0 0.0 0.0 0.00 0.00 0.00 1006.0
20260505084549 53 6 1.0 3.0 0.00 0.00 0.00 1009.6
20260505084048 53 6 2.0 4.0 0.00 0.00 0.00 1012.9
20260505083548 54 326 0.0 2.0 0.00 0.00 0.00 1007.0
20260505083047 54 59 2.0 3.0 0.00 0.00 0.00 1013.5
20260505082547 53 7 1.0 3.0 0.00 0.00 0.00 1010.3
20260505082047 53 69 1.0 2.0 0.00 0.00 0.00 1008.7
20260505081546 53 73 2.0 3.0 0.00 0.00 0.00 1008.8
20260505081045 54 53 2.0 3.0 0.00 0.00 0.00 1007.8
20260505080545 53 69 1.0 3.0 0.00 0.00 0.00 1012.3
20260505080044 53 89 1.0 5.0 0.00 0.00 0.00 1008.3
20260505075544 53 83 4.0 5.0 0.00 0.00 0.00 1008.7
20260505075043 54 86 0.0 2.0 0.00 0.00 0.00 1005.6
20260505074544 52 60 0.0 1.0 0.00 0.00 0.00 1008.5
20260505074042 53 77 3.0 4.0 0.00 0.00 0.00 1012.9
20260505073542 52 80 2.0 4.0 0.00 0.00 0.00 1012.6
20260505073041 52 104 2.0 3.0 0.00 0.00 0.00 1010.3
20260505072541 52 89 3.0 3.0 0.00 0.00 0.00 1009.9
20260505072040 52 83 3.0 5.0 0.00 0.00 0.00 1010.6
20260505071540 53 77 1.0 4.0 0.00 0.00 0.00 1005.4
20260505071039 52 79 1.0 1.0 0.00 0.00 0.00 1012.8
20260505070539 52 0 0.0 0.0 0.00 0.00 0.00 1009.9
20260505070038 52 0 0.0 0.0 0.00 0.00 0.00 1012.7
20260505065538 53 0 0.0 0.0 0.00 0.00 0.00 1008.5
20260505065037 53 0 0.0 0.0 0.00 0.00 0.00 1009.0
20260505064537 51 250 0.0 1.0 0.00 0.00 0.00 1012.9
20260505064036 52 326 1.0 3.0 0.00 0.00 0.00 1009.5
20260505063536 53 0 0.0 0.0 0.00 0.00 0.00 1009.0
20260505063033 54 0 0.0 0.0 0.00 0.00 0.00 1009.6
20260505062532 52 240 1.0 2.0 0.00 0.00 0.00 1012.8
20260505062032 54 236 1.0 3.0 0.00 0.00 0.00 1010.3
20260505061531 52 0 0.0 0.0 0.00 0.00 0.00 1009.7
20260505061031 52 0 0.0 0.0 0.00 0.00 0.00 1011.5
20260505060530 54 226 1.0 3.0 0.00 0.00 0.00 1008.6
20260505060030 52 229 1.0 2.0 0.00 0.00 0.00 1007.5
20260505055530 53 0 0.0 0.0 0.00 0.00 0.00 1009.4
20260505055029 51 229 0.0 2.0 0.00 0.00 0.00 1008.4
20260505054528 52 231 3.0 5.0 0.00 0.00 0.00 1008.5
20260505054028 52 255 1.0 2.0 0.00 0.00 0.00 1005.9
20260505053527 52 217 0.0 2.0 0.00 0.00 0.00 1007.6
20260505053025 52 217 0.0 2.0 0.00 0.00 0.00 1008.4
20260505052524 52 221 2.0 3.0 0.00 0.00 0.00 1009.6
20260505052023 51 236 0.0 2.0 0.00 0.00 0.00 1009.9
20260505051523 52 0 0.0 0.0 0.00 0.00 0.00 1011.7
20260505051022 54 0 0.0 0.0 0.00 0.00 0.00 1008.3
20260505050522 53 0 0.0 0.0 0.00 0.00 0.00 1009.7
20260505041516 52 232 0.0 1.0 0.00 0.00 0.00 1008.7
20260505041015 53 0 0.0 0.0 0.00 0.00 0.00 1008.5
20260505040515 52 0 0.0 0.0 0.00 0.00 0.00 1013.2
20260505040014 53 215 0.0 0.0 0.00 0.00 0.00 1010.0
20260505035514 53 0 0.0 0.0 0.00 0.00 0.00 1009.0
20260505035014 52 228 0.0 1.0 0.00 0.00 0.00 1011.1
20260505034513 51 226 1.0 2.0 0.00 0.00 0.00 1012.4
20260505034013 52 0 0.0 0.0 0.00 0.00 0.00 1012.7
20260505033512 53 231 1.0 2.0 0.00 0.00 0.00 1008.7
20260505033012 52 0 0.0 0.0 0.00 0.00 0.00 1009.4
20260505032511 52 0 0.0 0.0 0.00 0.00 0.00 1009.8
20260505032011 53 0 0.0 0.0 0.00 0.00 0.00 1011.6
20260505031510 53 0 0.0 0.0 0.00 0.00 0.00 1009.8
20260505031008 52 0 0.0 0.0 0.00 0.00 0.00 1009.6
20260505030507 52 229 0.0 2.0 0.00 0.00 0.00 1012.8
20260505030007 52 222 0.0 2.0 0.00 0.00 0.00 1010.6
20260505025507 52 0 0.0 0.0 0.00 0.00 0.00 1010.4
20260505025005 51 0 0.0 0.0 0.00 0.00 0.00 1010.0
20260505024504 52 0 0.0 0.0 0.00 0.00 0.00 1008.6
20260505024003 52 0 0.0 0.0 0.00 0.00 0.00 1009.7
20260505023503 52 0 0.0 0.0 0.00 0.00 0.00 1011.3
20260505022502 52 228 1.0 3.0 0.00 0.00 0.00 1011.4
20260505022001 52 166 0.0 0.0 0.00 0.00 0.00 1013.8
20260505021501 53 0 0.0 0.0 0.00 0.00 0.00 1010.9
20260505021000 51 224 1.0 2.0 0.00 0.00 0.00 1010.5
20260505020500 52 231 1.0 3.0 0.00 0.00 0.00 1008.0
20260505015959 53 0 0.0 0.0 0.00 0.00 0.00 1011.5
20260505015459 52 0 0.0 0.0 0.00 0.00 0.00 1007.6
20260505014958 51 0 0.0 0.0 0.00 0.00 0.00 1010.7
20260505014458 52 0 0.0 0.0 0.00 0.00 0.00 1011.4
20260505013457 51 125 0.0 1.0 0.00 0.00 0.00 1007.0
20260505012957 53 0 0.0 0.0 0.00 0.00 0.00 1009.3
20260505012456 51 0 0.0 0.0 0.00 0.00 0.00 1011.4